Tracking 19246 objects as of 21-Sep-2018
HD Live streaming from Space Station
objects crossing your sky now

FENGYUN 1C DEB

Track FENGYUN 1C DEB now!
10-day predictions


NORAD ID: 37698
Int'l Code: 1999-025ELP
Perigee: 775.9 km
Apogee: 1,324.4 km
Inclination: 98.0 °
Period: 106.0 minutes
Semi major axis: 7421 km
RCS: 0.0092 m2 (small)
Launch date: May 10, 1999
Source: People's Republic of China (PRC)
Launch site: Taiyaun Space Center, China (TSC)

Note: This is SATELLITE DEBRIS
aabbcc
Your satellite tracking list
Your tracking list is empty




NASA's NSSDC Master Catalog

Two Line Element Set (TLE):
1 37698U 99025ELP 18263.14927149  .00000302  00000-0  29676-3 0  9993
2 37698  97.9887 221.5736 0369530   5.8154  56.4907 13.57990626518540
Source of the keplerian elements: AFSPC